User: anonymous   Login
Location: Unspecified
(0.0000°N, 0.0000°E)
Time: 23:39:50
(UTC+01:00)
Language:

Cosmos 1536 - Orbit

View from above orbital plane
View from above orbital plane
View from above satellite
View from above satellite

Ground track
Ground track

The orbit data is extracted from the following two-line orbital elements,

1 14699U 84013A   15063.18264487  .00003547  00000-0  25814-3 0  9992
2 14699 082.5232 058.2092 0014290 032.3391 327.8708 15.03442457687399
Epoch (UTC): 04 March 2015 04:23:00
Eccentricity: 0.0014290
inclination: 82.5232°
perigee height: 546 km
apogee height: 566 km
right ascension of ascending node: 58.2092°
argument of perigee: 32.3391°
revolutions per day: 15.03442457
mean anomaly at epoch: 327.8708°
orbit number at epoch: 68739

The dashed part of the orbit path shows where the satellite is in the earth's shadow,  

DLR